Location: Bergheim
(50.9593°N, 6.6400°E)
Time: 11:09:47
(UTC+02:00)

ISS - Pass Details

Date: 27 May 2021
Orbit: 417 x 422 km, 51.6° (Epoch: 13 June)

Event Time Altitude Azimuth Distance (km) Brightness Sun altitude
Rises 22:12:47 0° 284° (WNW) 2,367 1.2 -5.6°
Reaches altitude 10° 22:14:54 10° 282° (WNW) 1,502 0.0 -5.8°
Maximum altitude 22:18:14 67° 200° (SSW) 458 -3.7 -6.2°
Drops below altitude 10° 22:21:35 10° 116° (ESE) 1,500 -1.5 -6.5°
Enters shadow 22:22:05 - 116° (ESE) 1,701 -1.3 -6.6°
